Regional Weather Roundup
Issued by NWS

Home | Current Version | Previous Version | Text Only | Print | Product List | Glossary Off
Versions: 1 2 3 4 5 6 7 8 9 10 11 12 13 14 15 16 17 18 19 20 21 22 23 24 25 26 27 28 29 30 31 32 33 34 35 36 37 38 39 40 41 42 43 44 45 46 47

000
ASUS43 KDMX 260107
RWRIA

WEATHER ROUNDUP FOR IOWA
NATIONAL WEATHER SERVICE DES MOINES IA
800 PM CDT FRI JUL 25 2014

NOTE: "FAIR" INDICATES FEW OR NO CLOUDS BELOW 12,000 FEET WITH NO
SIGNIFICANT WEATHER AND/OR OBSTRUCTIONS TO VISIBILITY.

* - THESE STATIONS ARE NOT NWS STATIONS...THUS NOT UNDER NWS
QUALITY CONTROL.  THEY ALSO DO NOT REPORT WEATHER SUCH
AS PRECIPITATION OR FOG.

IAZ001>003-012>014-020>022-031>034-043>046-260200-
   NORTHWEST IOWA

CITY           SKY/WX    TMP DP  RH WIND       PRES   REMARKS
CARROLL *      CLOUDY    79  73  83 E6        29.77R HX  82
CHEROKEE *     CLOUDY    77  73  88 CALM      29.77S
DENISON *      MOCLDY    82  77  83 NE5       29.74F HX  91
LE MARS *      CLOUDY    81  73  78 E6        29.76F HX  85
ORANGE CITY *  CLOUDY    81  72  74 E5        29.78S HX  84
SHELDON *      CLOUDY    77  72  83 SE5       29.77F
SIOUX CITY     CLEAR     83  73  72 E7        29.75S HX  89
SPENCER        CLOUDY    77  71  82 S5        29.79F
STORM LAKE *   CLOUDY    75  73  94 SE3       29.79F
$$

IAZ055>058-069>071-079>083-090>094-260200-
   SOUTHWEST IOWA

CITY           SKY/WX    TMP DP  RH WIND       PRES   REMARKS
ATLANTIC *     CLEAR     81  73  78 E8        29.75S HX  85
AUDUBON *      CLEAR     82  77  83 SE5       29.78R HX  91
CLARINDA *     CLEAR     88  81  79 CALM      29.73S HX 105
COUNCIL BLFS * CLEAR     84  81  89 E8        29.73S HX  98
CRESTON *      CLEAR     77  72  83 E9        29.78S
HARLAN  *      CLEAR     81  75  83 E6        29.79R HX  86
LAMONI         CLEAR     79  72  79 E6        29.77S HX  82
RED OAK *      CLEAR     84  77  79 NE10G17   29.73S HX  94
SHENANDOAH *   CLEAR     90  82  79 NE5       29.71S HX 111
$$

IAZ047>049-059>061-072>074-084-260200-
   CENTRAL IOWA

CITY           SKY/WX    TMP DP  RH WIND       PRES   REMARKS
AMES           CLEAR     76  70  82 E3        29.78F
ANKENY *       CLEAR     79  72  78 SE5       29.78S HX  82
CHARITON *     PTCLDY    77  72  83 SE8       29.79F
DES MOINES     MOCLDY    81  71  71 E6        29.77F HX  85
GRINNELL*      CLOUDY    75  70  83 E6        29.81F
KNOXVILLE *    PTCLDY    77  72  83 SE6       29.78S
MARSHALLTOWN   MOCLDY    75  70  84 SE7       29.79F
PELLA *        PTCLDY    77  72  83 SE7       29.81S
PERRY *        MOCLDY    77  72  83 SE3       29.77S
$$

IAZ004>006-015-016-023>025-035-036-260200-
   NORTH CENTRAL IOWA

CITY           SKY/WX    TMP DP  RH WIND       PRES   REMARKS
ALGONA *       CLOUDY    75  72  88 CALM      29.80S
CLARION *      CLOUDY    75  72  88 CALM      29.80R
ESTHERVILLE    CLOUDY    75  70  84 S6        29.79S
FORT DODGE *   MOCLDY    77  70  78 SE3       29.80R
MASON CITY     CLOUDY    75  69  81 S6        29.81S
FOREST CITY *  CLOUDY    73  70  88 S3        29.80S
IOWA FALLS *   CLOUDY    75  70  83 SE5       29.81F
$$

IAZ007>011-017>019-026>030-037>042-050>054-066-260200-
   NORTHEAST IOWA

CITY           SKY/WX    TMP DP  RH WIND       PRES   REMARKS
CEDAR RAPIDS   CLOUDY    72  66  81 SE9       29.84S
CHARLES CITY * CLOUDY    75  70  83 S6        29.81F
CLINTON *      CLOUDY    66  63  88 SE13      29.92S
DECORAH *      CLOUDY    72  66  83 SE8G16    29.83S
DUBUQUE        CLOUDY    66  64  93 SE10      29.88F
MONTICELLO *   CLOUDY    72  66  83 SE10      29.86S
OELWEIN *      CLOUDY    73  68  83 SE9       29.84S
WATERLOO       CLOUDY    75  68  78 SE9       29.80F
$$

IAZ064-065-067-068-078-260200-
   EAST CENTRAL IOWA

CITY           SKY/WX    TMP DP  RH WIND       PRES   REMARKS
DAVENPORT      CLOUDY    69  64  84 E9        29.89R
IOWA CITY      CLOUDY    73  67  81 E9        29.85S
MT. PLEASANT * CLOUDY    73  66  78 SE6       29.85S
MUSCATINE *    CLOUDY    73  66  78 SE7       29.85S
QUAD CITIES    CLOUDY    72  63  73 SE7       29.88S
$$

IAZ062-063-075>077-085>089-095>099-260200-
   SOUTHEAST IOWA

CITY           SKY/WX    TMP DP  RH WIND       PRES   REMARKS
BURLINGTON     CLOUDY    74  64  71 SE7       29.85F
FAIRFIELD *    MOCLDY    75  68  78 SE6       29.83S
FORT MADISON * CLOUDY    75  66  73 SE5       29.86S
KEOKUK *       MOCLDY    75  66  73 SE6       29.84S
OSKALOOSA *      N/A     75  70  83 SE6       29.82S
CENTERVILLE *  CLEAR     75  70  83 SE7       29.82S
OTTUMWA        PTCLDY    75  69  81 SE9       29.81F
WASHINGTON *   CLOUDY    73  70  88 SE5       29.84S
$$

ABBREVIATIONS USED IN REMARKS
   TC - TEMPERATURES IN CELSIUS
  WCI - WIND CHILL INDEX
   HX - HEAT INDEX
  VSB - VISIBILITY
$$




USA.gov is the U.S. government's official web portal to all federal, state and local government web resources and services.